[[{"header":{"parameterUnit":"m.s-1","parameterCategory":1,"la1":30.2991,"la2":30.254,"lo1":-89.0895,"lo2":-89.0444,"dy":0.0017,"dx":0.0017,"nx":28,"ny":28,"refTime":"2024-07-28T21:00:00:Z","depth":0,"parameterNumber":2,"parameterNumberName":"U-component_of_WINDS"},"data":[0,0,0,0,0,0,0,0,0,0,0,0,0,0,0,0,0,0,0,0,0,0,0,0,0,0,0,0,0,0,0,0,0,0,0,0,0,0,0,0,0,0,0,0,0,0,0,0,0,0,0,0,0,0,0,0,0,0,4.0723,4.0725,0,4.0864,4.0866,4.0868,4.0814,4.0811,4.0808,4.0805,4.0954,4.0961,4.0968,0,0,0,0,0,0,0,0,0,0,0,0,0,4.0412,4.0418,4.0723,4.0725,4.0727,4.0864,4.0866,4.0868,4.0815,4.0811,4.0807,4.0803,4.0952,4.096,4.0968,0,0,0,0,0,0,0,0,0,0,0,0,0,4.055,4.042,4.0723,4.0717,4.0718,4.0864,4.0866,4.0869,4.0816,4.0811,4.0806,4.0802,4.0949,4.0959,4.0969,4.1131,0,0,4.1001,4.1006,0,0,0,0,0,0,0,0,4.0542,4.0561,4.0716,4.0717,4.0719,4.0817,4.0811,4.0957,4.0817,4.0779,4.0805,4.0799,4.0913,4.0926,4.0963,4.1138,4.1145,4.1002,4.1009,4.1013,4.1016,0,0,0,0,0,0,0,4.0533,4.0555,4.0779,4.0718,4.072,4.0708,4.0723,4.0838,4.0871,4.0782,4.0778,4.0795,4.0912,4.0953,4.0966,4.1147,4.1002,4.1011,4.1018,4.1022,4.1463,4.1468,0,0,0,0,0,0,4.0522,4.0547,4.0775,4.0783,4.0616,4.0718,4.0734,4.079,4.087,4.0877,4.0799,4.0792,4.0937,4.0954,4.0971,4.1166,4.1013,4.1023,4.1029,4.1458,4.1464,4.147,0,0,0,0,0,0,4.0516,4.0543,4.0769,4.0665,4.0692,4.0728,4.0792,4.0796,4.0836,4.0883,4.0889,4.0835,4.0934,4.0956,4.1092,4.1171,4.1028,4.1037,4.1451,4.146,4.1467,4.1558,0,0,0,0,0,0,4.0507,4.0541,4.0602,4.0666,4.0698,4.0886,4.0797,4.0802,4.0854,4.0846,4.0918,4.0925,4.0932,4.1076,4.1102,4.1183,4.1045,4.1444,4.1455,4.1465,4.1548,4.1568,4.1586,0,0,0,0,0,4.0496,4.0623,4.0605,4.0633,4.0775,4.0891,4.0909,4.0914,4.086,4.0923,4.0953,4.0923,4.1158,4.1091,4.1119,4.1204,4.1439,4.1452,4.1464,4.154,4.1564,4.1585,0,0,0,0,0,0,4.0568,4.0631,4.0612,4.0763,4.0822,4.0882,4.096,4.094,4.1016,4.1006,4.1009,4.1026,4.1165,4.1198,4.1122,4.1365,4.1291,4.1309,4.1339,4.1363,4.1381,4.137,4.1054,0,0,0,0,0,4.0601,4.0689,4.0739,4.0868,4.0898,4.0924,4.0975,4.0973,4.1035,4.106,4.11,4.1162,4.125,4.1308,4.1392,4.1553,4.1568,4.1625,4.1644,4.1659,4.1675,4.1764,4.179,4.151,4.151,4.151,0,0,4.0671,4.0716,4.0772,4.0883,4.0929,4.1021,4.0946,4.1046,4.1115,4.1076,4.1206,4.1237,4.1307,4.1456,4.1524,4.1488,4.1756,4.1674,4.1686,4.1694,4.1779,4.1805,4.1829,4.1519,4.1517,4.1516,0,0,4.0845,4.0888,4.1,4.1047,4.1116,4.1132,4.1159,4.1222,4.1241,4.1372,4.1344,4.1427,4.1578,4.1629,4.1675,4.1869,4.1844,4.1896,4.1994,4.208,4.2102,4.2121,4.2191,4.2216,4.1912,4.1912,4.1912,0,4.0924,4.106,4.106,4.1163,4.1214,4.1181,4.1295,4.1341,4.1434,4.1471,4.1429,4.1618,4.1662,4.1823,4.187,4.1908,4.194,4.1888,4.2098,4.2118,4.2136,4.2203,4.2229,4.1918,4.1917,4.1916,4.1916,0,4.1154,4.1249,4.1331,4.1421,4.1481,4.1589,4.1606,4.1667,4.166,4.1682,4.1815,4.1868,4.1961,4.1999,4.1994,4.216,4.2136,4.2096,4.2021,4.2169,4.2232,4.2257,4.1926,4.1924,4.1922,4.1921,0,0,4.1378,4.1466,4.1496,4.1537,4.1611,4.1685,4.1792,4.1882,4.1934,4.2,4.2091,4.222,4.2183,4.2235,4.2236,4.2311,4.2462,4.2263,4.2264,4.2298,4.265,4.2679,4.2709,4.2446,4.2451,4.2455,4.2644,0,4.1559,4.1745,4.1749,4.192,4.2009,4.1979,4.2072,4.2128,4.2151,4.2231,4.2257,4.2348,4.2293,4.2324,4.2397,4.2428,4.2533,4.2415,4.2532,4.2536,4.2516,4.2741,4.2773,4.2949,4.2668,4.2673,4.2676,0,4.1795,4.1867,4.2047,4.2108,4.2145,4.2229,4.2312,4.2388,4.2451,4.2463,4.2521,4.251,4.2621,4.2542,4.2695,4.2615,4.2663,4.2685,4.2692,4.2704,4.2615,4.276,4.3005,4.3032,4.2714,4.2711,4.2708,0,4.1942,4.2084,4.221,4.2245,4.2319,4.2379,4.2413,4.2471,4.2526,4.2599,4.2634,4.272,4.2767,4.2834,4.2847,4.2788,4.3002,4.2923,4.3015,4.3015,4.3062,4.3059,4.3319,4.3092,4.3092,4.3091,4.3091,0,4.2144,4.2255,4.2276,4.2354,4.2478,4.2482,4.2605,4.2635,4.2687,4.2771,4.2751,4.283,4.2842,4.2925,4.2936,4.3062,4.3084,4.3097,4.3099,4.3099,4.3098,4.3131,4.312,4.3098,4.3097,4.3095,4.3094,0,4.2329,4.2347,4.2483,4.2541,4.2559,4.2648,4.2699,4.2774,4.2795,4.2901,4.2927,4.296,4.3056,4.3075,4.319,4.3197,4.3347,4.3337,4.3326,4.3325,4.3416,4.3407,4.3707,4.3747,4.3493,4.3496,4.3498,0,4.2457,4.2542,4.2609,4.2663,4.27,4.2787,4.2842,4.2849,4.2907,4.2986,4.3052,4.3146,4.3221,4.3377,4.3412,4.35,4.3492,4.3591,4.3505,4.3503,4.3494,4.3489,4.3498,4.3607,4.361,4.3612,4.3614,0,4.2683,4.2688,4.2766,4.2849,4.2914,4.298,4.3042,4.3088,4.3103,4.317,4.3267,4.3326,4.3442,4.3536,4.3624,4.366,4.3641,4.3641,4.3667,4.3669,4.3659,4.3666,4.3371,4.3634,4.3632,4.3631,4.3629,4.3629,4.2844,4.2918,4.2977,4.3066,4.3113,4.3172,4.3245,4.3274,4.3355,4.3449,4.3448,4.3556,4.3618,4.3733,4.3775,4.386,4.3829,4.3867,4.3876,4.3886,4.3894,4.3645,4.3876,4.3875,4.3875,4.3874,4.3874,0,4.3069,4.3105,4.3187,4.3274,4.3344,4.3317,4.3385,4.3446,4.354,4.3598,4.3673,4.3785,4.3876,4.3918,4.4009,4.4069,4.4062,4.4092,4.4088,4.4097,4.3917,4.3885,4.4096,4.4096,4.4096,4.4096,4.4096,4.4096,4.3195,4.3319,4.3331,4.3478,4.3514,4.3618,4.3659,4.3713,4.376,4.3886,4.3961,4.3987,4.404,4.4133,4.4216,4.4226,4.4261,4.4296,4.4302,4.4132,4.411,4.4088,4.4059,4.4303,4.4303,4.4475,4.4477,4.4478]},{"header":{"parameterUnit":"m.s-1","parameterCategory":1,"la1":30.2991,"la2":30.254,"lo1":-89.0895,"lo2":-89.0444,"dy":0.0017,"dx":0.0017,"nx":28,"ny":28,"refTime":"2024-07-28T21:00:00:Z","depth":0,"parameterNumber":3,"parameterNumberName":"V-component_of_WINDS"},"data":[0,0,0,0,0,0,0,0,0,0,0,0,0,0,0,0,0,0,0,0,0,0,0,0,0,0,0,0,0,0,0,0,0,0,0,0,0,0,0,0,0,0,0,0,0,0,0,0,0,0,0,0,0,0,0,0,0,0,-1.3557,-1.3558,0,-1.3616,-1.3616,-1.3617,-1.3622,-1.3622,-1.3621,-1.362,-1.368,-1.3682,-1.3684,0,0,0,0,0,0,0,0,0,0,0,0,0,-1.3451,-1.3453,-1.3557,-1.3558,-1.3559,-1.3616,-1.3616,-1.3617,-1.3622,-1.3621,-1.3621,-1.362,-1.3679,-1.3682,-1.3685,0,0,0,0,0,0,0,0,0,0,0,0,0,-1.3502,-1.3454,-1.3557,-1.3568,-1.357,-1.3615,-1.3616,-1.3617,-1.3622,-1.3621,-1.3621,-1.362,-1.3679,-1.3682,-1.3685,-1.3724,0,0,-1.3695,-1.3696,0,0,0,0,0,0,0,0,-1.3499,-1.3506,-1.3566,-1.3568,-1.3569,-1.3611,-1.3601,-1.3653,-1.3623,-1.3602,-1.362,-1.3619,-1.3658,-1.3663,-1.3676,-1.3727,-1.3729,-1.3695,-1.3697,-1.3699,-1.3699,0,0,0,0,0,0,0,-1.3496,-1.3504,-1.3581,-1.3567,-1.3569,-1.357,-1.3577,-1.3611,-1.3635,-1.3604,-1.3605,-1.3611,-1.3659,-1.3673,-1.3677,-1.373,-1.3695,-1.3698,-1.37,-1.3701,-1.3816,-1.3817,0,0,0,0,0,0,-1.349,-1.3501,-1.3579,-1.3582,-1.3531,-1.3573,-1.358,-1.3598,-1.3634,-1.3639,-1.3612,-1.3611,-1.3667,-1.3673,-1.3679,-1.3727,-1.3699,-1.3702,-1.3703,-1.3815,-1.3816,-1.3818,0,0,0,0,0,0,-1.3488,-1.3497,-1.3576,-1.3542,-1.3552,-1.3576,-1.3596,-1.36,-1.3614,-1.364,-1.3645,-1.3622,-1.3667,-1.3675,-1.3713,-1.3729,-1.3703,-1.3706,-1.3814,-1.3815,-1.3817,-1.3823,0,0,0,0,0,0,-1.3485,-1.3496,-1.3511,-1.3542,-1.3554,-1.3609,-1.3598,-1.3602,-1.362,-1.3619,-1.3651,-1.3655,-1.3667,-1.3708,-1.3716,-1.3733,-1.3709,-1.3812,-1.3815,-1.3816,-1.3821,-1.3825,-1.3827,0,0,0,0,0,-1.3481,-1.351,-1.3512,-1.3521,-1.3573,-1.361,-1.3616,-1.3629,-1.3621,-1.3636,-1.3653,-1.3654,-1.3726,-1.3712,-1.3721,-1.3739,-1.3811,-1.3814,-1.3816,-1.382,-1.3824,-1.3827,0,0,0,0,0,0,-1.348,-1.3514,-1.3516,-1.3557,-1.358,-1.361,-1.363,-1.3633,-1.3659,-1.3658,-1.3673,-1.368,-1.3717,-1.3732,-1.3715,-1.3779,-1.3768,-1.3772,-1.3768,-1.3772,-1.3775,-1.377,-1.3711,0,0,0,0,0,-1.3485,-1.3512,-1.354,-1.3573,-1.3585,-1.3605,-1.3622,-1.363,-1.3655,-1.3665,-1.3685,-1.3709,-1.3737,-1.3755,-1.3783,-1.3824,-1.3831,-1.3841,-1.3844,-1.3847,-1.385,-1.3873,-1.3878,-1.3826,-1.3826,-1.3826,0,0,-1.3495,-1.3517,-1.3533,-1.3574,-1.3593,-1.3621,-1.3614,-1.3643,-1.3664,-1.3669,-1.3706,-1.3722,-1.375,-1.379,-1.3809,-1.3804,-1.3866,-1.385,-1.3851,-1.3854,-1.3876,-1.3881,-1.3886,-1.3827,-1.3827,-1.3827,0,0,-1.3526,-1.3546,-1.3575,-1.3595,-1.3624,-1.3637,-1.3645,-1.3675,-1.3685,-1.3723,-1.3727,-1.3753,-1.3801,-1.3821,-1.3837,-1.3878,-1.3879,-1.3886,-1.3901,-1.3924,-1.3928,-1.3932,-1.3946,-1.3951,-1.389,-1.389,-1.389,0,-1.3534,-1.3576,-1.359,-1.362,-1.3637,-1.3644,-1.3674,-1.3692,-1.3729,-1.3741,-1.3736,-1.3797,-1.3816,-1.3861,-1.3871,-1.3884,-1.3893,-1.3882,-1.3926,-1.393,-1.3934,-1.3948,-1.3953,-1.389,-1.389,-1.389,-1.389,0,-1.3585,-1.3614,-1.3634,-1.367,-1.369,-1.372,-1.3738,-1.3757,-1.3764,-1.3778,-1.3817,-1.384,-1.3873,-1.3884,-1.3891,-1.393,-1.3926,-1.3923,-1.3912,-1.3939,-1.3952,-1.3958,-1.3891,-1.3891,-1.3891,-1.3891,0,0,-1.3617,-1.366,-1.3667,-1.3684,-1.3717,-1.374,-1.377,-1.3802,-1.3818,-1.3843,-1.3869,-1.391,-1.3908,-1.3927,-1.3936,-1.3955,-1.3986,-1.395,-1.3951,-1.3956,-1.4031,-1.4032,-1.4038,-1.3988,-1.3989,-1.399,-1.4028,0,-1.3652,-1.3706,-1.3719,-1.3765,-1.3793,-1.38,-1.3826,-1.3849,-1.3864,-1.3889,-1.3905,-1.3934,-1.3929,-1.394,-1.396,-1.3978,-1.4001,-1.3975,-1.4012,-1.4013,-1.4004,-1.4045,-1.4047,-1.4082,-1.4034,-1.4035,-1.4035,0,-1.37,-1.3727,-1.3775,-1.3805,-1.3817,-1.3841,-1.3871,-1.3895,-1.3922,-1.3932,-1.3953,-1.396,-1.3992,-1.398,-1.4025,-1.4007,-1.4023,-1.4034,-1.4036,-1.4039,-1.4025,-1.4049,-1.4094,-1.4099,-1.4043,-1.4043,-1.4042,0,-1.3718,-1.3766,-1.3802,-1.3815,-1.3851,-1.3868,-1.3884,-1.391,-1.3928,-1.3955,-1.3967,-1.3997,-1.4014,-1.4037,-1.4053,-1.4043,-1.4096,-1.4086,-1.4105,-1.4105,-1.4115,-1.4114,-1.4163,-1.4126,-1.4126,-1.4126,-1.4126,0,-1.3756,-1.3785,-1.381,-1.3832,-1.3865,-1.3881,-1.3914,-1.393,-1.3953,-1.3978,-1.3986,-1.401,-1.4029,-1.4055,-1.4068,-1.4103,-1.4111,-1.4119,-1.4122,-1.4118,-1.4117,-1.4128,-1.4126,-1.4128,-1.4127,-1.4127,-1.4127,0,-1.3781,-1.3799,-1.3838,-1.3869,-1.3878,-1.3901,-1.3928,-1.3949,-1.3964,-1.3996,-1.4005,-1.4028,-1.406,-1.4078,-1.4117,-1.4126,-1.4165,-1.4167,-1.4156,-1.4157,-1.4175,-1.4173,-1.4232,-1.424,-1.4199,-1.4199,-1.4199,0,-1.3803,-1.3826,-1.386,-1.3877,-1.3894,-1.3922,-1.3941,-1.3957,-1.3977,-1.4009,-1.4027,-1.4059,-1.4085,-1.4135,-1.4156,-1.4187,-1.4189,-1.4208,-1.4194,-1.4189,-1.4189,-1.4188,-1.419,-1.421,-1.421,-1.4211,-1.4211,0,-1.3841,-1.3849,-1.3876,-1.3907,-1.3929,-1.3954,-1.3978,-1.3992,-1.4013,-1.4034,-1.4067,-1.4087,-1.4128,-1.416,-1.4192,-1.4209,-1.4213,-1.4215,-1.4221,-1.4217,-1.421,-1.4214,-1.4162,-1.4214,-1.4213,-1.4213,-1.4213,-1.4213,-1.3866,-1.3886,-1.3914,-1.3943,-1.3964,-1.3987,-1.4009,-1.4027,-1.4054,-1.4088,-1.4096,-1.413,-1.4157,-1.4201,-1.4219,-1.4246,-1.4243,-1.4251,-1.4254,-1.4255,-1.4256,-1.4206,-1.4252,-1.4252,-1.4252,-1.4252,-1.4252,0,-1.3904,-1.3922,-1.3949,-1.3983,-1.4007,-1.401,-1.4037,-1.4057,-1.4087,-1.4111,-1.4137,-1.4175,-1.4206,-1.4229,-1.4261,-1.4278,-1.4281,-1.4286,-1.4285,-1.4289,-1.4257,-1.4249,-1.4283,-1.4283,-1.4283,-1.4283,-1.4283,-1.4283,-1.3926,-1.3961,-1.3973,-1.4018,-1.4036,-1.407,-1.4085,-1.4106,-1.4126,-1.4168,-1.4193,-1.4209,-1.4233,-1.4267,-1.4296,-1.4302,-1.4313,-1.4318,-1.4324,-1.4294,-1.4291,-1.4287,-1.428,-1.432,-1.432,-1.4353,-1.4354,-1.4354]}]]